When you browse on this site, cookies collect data to enhance your experience and personalize the content and advertising you see.
Visit our Privacy Policy to learn more. By continuing to use the site, you agree to this use of cookies and data.

Hourly Weather Barinas

Today, 15 July, Wednesday

Time Temperature Precipitation Wind Pressure Humidity
00:00 +25°C° 0 mm 1 mps 744 mmHg 82%
01:00 +25°C° 0 mm 1 mps 744 mmHg 80%
02:00 +24°C° 0.1 mm 1 mps 744 mmHg 79%
03:00 +24°C° 0.1 mm 1 mps 744 mmHg 78%
04:00 +24°C° 0.1 mm 1 mps 743 mmHg 76%
05:00 +24°C° 0.5 mm 1 mps 744 mmHg 76%
06:00 +25°C° 0.5 mm 1 mps 744 mmHg 76%
07:00 +26°C° 0.5 mm 1 mps 745 mmHg 76%
08:00 +27°C° 0.3 mm 1 mps 745 mmHg 73%
09:00 +29°C° 0.3 mm 1 mps 745 mmHg 70%
10:00 +31°C° 0.3 mm 1 mps 745 mmHg 67%
11:00 +31°C° 0.1 mm 1 mps 744 mmHg 65%
12:00 +32°C° 0.1 mm 2 mps 743 mmHg 64%
13:00 +32°C° 0.1 mm 2 mps 743 mmHg 62%
14:00 +32°C° 0.1 mm 2 mps 742 mmHg 66%
15:00 +31°C° 0.1 mm 2 mps 742 mmHg 71%
16:00 +30°C° 0.1 mm 2 mps 741 mmHg 75%
17:00 +29°C° 0.9 mm 2 mps 741 mmHg 80%
18:00 +28°C° 0.9 mm 1 mps 742 mmHg 86%
19:00 +26°C° 0.9 mm 1 mps 742 mmHg 91%
20:00 +26°C° 0.6 mm 1 mps 743 mmHg 91%
21:00 +25°C° 0.6 mm 1 mps 743 mmHg 92%
22:00 +25°C° 0.6 mm 1 mps 743 mmHg 92%
23:00 +25°C° 0.1 mm 1 mps 743 mmHg 91%

Tomorrow, 16 July, Thursday

Time Temperature Precipitation Wind Pressure Humidity
00:00 +24°C° 0.1 mm 1 mps 743 mmHg 91%
01:00 +24°C° 0.1 mm 1 mps 743 mmHg 90%
02:00 +24°C° 0 mm 1 mps 743 mmHg 89%
03:00 +24°C° 0 mm 1 mps 742 mmHg 88%
04:00 +24°C° 0 mm 1 mps 742 mmHg 88%
05:00 +24°C° 0.1 mm 1 mps 743 mmHg 86%
06:00 +25°C° 0.1 mm 1 mps 743 mmHg 84%
07:00 +24°C° 0.1 mm 0 mps 744 mmHg 82%
08:00 +28°C° 0.2 mm 1 mps 744 mmHg 76%
09:00 +30°C° 0.2 mm 1 mps 744 mmHg 70%
10:00 +31°C° 0.2 mm 1 mps 744 mmHg 63%
11:00 +32°C° 0.2 mm 1 mps 743 mmHg 64%
12:00 +32°C° 0.2 mm 2 mps 743 mmHg 64%
13:00 +32°C° 0.2 mm 2 mps 742 mmHg 64%
14:00 +31°C° 0.8 mm 2 mps 742 mmHg 70%
15:00 +30°C° 0.8 mm 2 mps 741 mmHg 76%
16:00 +30°C° 0.8 mm 2 mps 741 mmHg 82%
17:00 +28°C° 0.2 mm 2 mps 741 mmHg 85%
18:00 +27°C° 0.2 mm 2 mps 742 mmHg 88%
19:00 +26°C° 0.2 mm 1 mps 742 mmHg 92%
20:00 +26°C° 0.2 mm 1 mps 743 mmHg 92%
21:00 +25°C° 0.2 mm 1 mps 743 mmHg 92%
22:00 +25°C° 0.2 mm 1 mps 743 mmHg 91%
23:00 +25°C° 0.3 mm 1 mps 743 mmHg 91%

Day after tomorrow, 17 July, Friday

Time Temperature Precipitation Wind Pressure Humidity
00:00 +24°C° 0.3 mm 1 mps 743 mmHg 91%
01:00 +24°C° 0.3 mm 1 mps 743 mmHg 90%
02:00 +24°C° 0.2 mm 1 mps 742 mmHg 90%
03:00 +24°C° 0.2 mm 1 mps 742 mmHg 90%
04:00 +24°C° 0.2 mm 1 mps 742 mmHg 90%
05:00 +22°C° 0.5 mm 0 mps 743 mmHg 90%
06:00 +23°C° 0.5 mm 0 mps 743 mmHg 89%
07:00 +23°C° 0.5 mm 0 mps 743 mmHg 88%
08:00 +24°C° 0.6 mm 0 mps 744 mmHg 85%
09:00 +27°C° 0.6 mm 1 mps 744 mmHg 82%
10:00 +28°C° 0.6 mm 1 mps 744 mmHg 79%
11:00 +29°C° 1.4 mm 1 mps 743 mmHg 78%
12:00 +29°C° 1.4 mm 1 mps 743 mmHg 77%
13:00 +29°C° 1.4 mm 1 mps 742 mmHg 76%
14:00 +30°C° 0.4 mm 1 mps 742 mmHg 75%
15:00 +30°C° 0.4 mm 1 mps 741 mmHg 74%
16:00 +30°C° 0.4 mm 1 mps 741 mmHg 72%
17:00 +29°C° 0.5 mm 1 mps 741 mmHg 78%
18:00 +27°C° 0.5 mm 1 mps 742 mmHg 84%
19:00 +24°C° 0.5 mm 0 mps 742 mmHg 90%
20:00 +24°C° 0.2 mm 0 mps 743 mmHg 90%
21:00 +23°C° 0.2 mm 0 mps 743 mmHg 91%
22:00 +25°C° 0.2 mm 1 mps 743 mmHg 92%
23:00 +25°C° 0.1 mm 1 mps 743 mmHg 92%

18 July, Saturday

Time Temperature Precipitation Wind Pressure Humidity
00:00 +25°C° 0.1 mm 1 mps 743 mmHg 93%
01:00 +25°C° 0.1 mm 1 mps 742 mmHg 93%
02:00 +24°C° 0.1 mm 1 mps 742 mmHg 93%
03:00 +24°C° 0.1 mm 1 mps 742 mmHg 93%
04:00 +24°C° 0.1 mm 1 mps 742 mmHg 93%
05:00 +25°C° 0 mm 1 mps 743 mmHg 91%
06:00 +25°C° 0 mm 1 mps 743 mmHg 90%
07:00 +24°C° 0 mm 0 mps 743 mmHg 88%
08:00 +27°C° 0.5 mm 1 mps 743 mmHg 84%
09:00 +28°C° 0.5 mm 2 mps 744 mmHg 81%
10:00 +30°C° 0.5 mm 3 mps 744 mmHg 77%
11:00 +30°C° 0.7 mm 3 mps 743 mmHg 76%
12:00 +30°C° 0.7 mm 3 mps 743 mmHg 75%
13:00 +31°C° 0.7 mm 3 mps 742 mmHg 75%
14:00 +31°C° 0.2 mm 2 mps 741 mmHg 73%
15:00 +31°C° 0.2 mm 2 mps 741 mmHg 72%
16:00 +31°C° 0.2 mm 1 mps 740 mmHg 71%
17:00 +30°C° 0.1 mm 1 mps 741 mmHg 75%
18:00 +28°C° 0.1 mm 1 mps 741 mmHg 79%
19:00 +25°C° 0.1 mm 0 mps 742 mmHg 84%
20:00 +24°C° 1.5 mm 0 mps 742 mmHg 87%
21:00 +24°C° 1.5 mm 0 mps 743 mmHg 91%
22:00 +23°C° 1.5 mm 0 mps 743 mmHg 94%
23:00 +23°C° 0.6 mm 0 mps 743 mmHg 94%

19 July, Sunday

Time Temperature Precipitation Wind Pressure Humidity
00:00 +23°C° 0.6 mm 0 mps 742 mmHg 94%
01:00 +23°C° 0.6 mm 0 mps 742 mmHg 94%
02:00 +22°C° 0.2 mm 0 mps 742 mmHg 94%
03:00 +24°C° 0.2 mm 1 mps 742 mmHg 94%
04:00 +24°C° 0.2 mm 1 mps 742 mmHg 94%
05:00 +25°C° 0 mm 1 mps 742 mmHg 92%
06:00 +23°C° 0 mm 0 mps 743 mmHg 90%
07:00 +24°C° 0 mm 0 mps 743 mmHg 89%
08:00 +26°C° 0.7 mm 0 mps 743 mmHg 82%
09:00 +27°C° 0.7 mm 0 mps 743 mmHg 74%
10:00 +31°C° 0.7 mm 1 mps 743 mmHg 67%
11:00 +31°C° 0.6 mm 1 mps 742 mmHg 69%
12:00 +31°C° 0.6 mm 1 mps 742 mmHg 71%
13:00 +31°C° 0.6 mm 2 mps 741 mmHg 73%
14:00 +31°C° 1.8 mm 2 mps 741 mmHg 77%
15:00 +30°C° 1.8 mm 1 mps 740 mmHg 80%
16:00 +30°C° 1.8 mm 1 mps 740 mmHg 83%
17:00 +26°C° 0.8 mm 0 mps 740 mmHg 86%
18:00 +25°C° 0.8 mm 0 mps 741 mmHg 88%
19:00 +24°C° 0.8 mm 0 mps 741 mmHg 90%
20:00 +24°C° 0.6 mm 0 mps 742 mmHg 91%
21:00 +24°C° 0.6 mm 0 mps 742 mmHg 91%
22:00 +23°C° 0.6 mm 0 mps 743 mmHg 92%
23:00 +25°C° 0.4 mm 1 mps 742 mmHg 93%

20 July, Monday

Time Temperature Precipitation Wind Pressure Humidity
00:00 +25°C° 0.4 mm 1 mps 742 mmHg 93%
01:00 +25°C° 0.4 mm 1 mps 741 mmHg 93%
02:00 +25°C° 0.1 mm 1 mps 741 mmHg 93%
03:00 +24°C° 0.1 mm 1 mps 741 mmHg 93%
04:00 +24°C° 0.1 mm 1 mps 741 mmHg 92%
05:00 +23°C° 0.1 mm 0 mps 742 mmHg 91%
06:00 +23°C° 0.1 mm 0 mps 742 mmHg 89%
07:00 +24°C° 0.1 mm 0 mps 743 mmHg 88%
08:00 +25°C° 1.1 mm 0 mps 743 mmHg 85%
09:00 +28°C° 1.1 mm 1 mps 743 mmHg 81%
10:00 +29°C° 1.1 mm 1 mps 743 mmHg 78%
11:00 +29°C° 2.5 mm 1 mps 743 mmHg 80%
12:00 +29°C° 2.5 mm 2 mps 742 mmHg 82%
13:00 +29°C° 2.5 mm 2 mps 742 mmHg 85%
14:00 +29°C° 1.2 mm 2 mps 741 mmHg 87%
15:00 +28°C° 1.2 mm 2 mps 741 mmHg 89%
16:00 +27°C° 1.2 mm 2 mps 740 mmHg 91%
17:00 +27°C° 0.1 mm 1 mps 741 mmHg 92%
18:00 +26°C° 0.1 mm 1 mps 741 mmHg 93%
19:00 +23°C° 0.1 mm 0 mps 741 mmHg 93%
20:00 +25°C° 0.1 mm 1 mps 742 mmHg 93%
21:00 +25°C° 0.1 mm 1 mps 742 mmHg 93%
22:00 +25°C° 0.1 mm 1 mps 743 mmHg 92%
23:00 +25°C° 0 mm 1 mps 742 mmHg 92%
Show more